Las Vegas, NV

9:26 PM PDT on May 21, 2018 (GMT -0700)
McCarran International

Weather History for KLAS - July, 2013

Change the Weather History Date:

Wednesday, July 3, 2013

  Actual Average Record
Temperature  
Mean Temperature 103 °F 91 °F  
Max Temperature 113 °F 103 °F 116 °F (1937)
Min Temperature 92 °F 80 °F 60 °F (1943)
Degree Days  
Heating Degree Days 0 0  
Month to date heating degree days 0 0  
Since 1 June heating degree days 0 1  
Since 1 July heating degree days 0 0  
Cooling Degree Days 38 26  
Month to date cooling degree days 116 78  
Year to date cooling degree days 1610 1278  
Since 1 June cooling degree days 920 728  
Growing Degree Days 52 (Base 50)    
Moisture  
Dew Point 42 °F    
Average Humidity 15    
Maximum Humidity 22    
Minimum Humidity 8    
Precipitation  
Precipitation 0.00 in 0.01 in 0.74 in (2011)
Month to date precipitation 0.00 0.02  
Year to date precipitation 0.61 2.10  
Snow  
Snow 0.00 in 0.00 in 0.00 in ()
Month to date snowfall 0.0 0.0  
Since 1 June snowfall 0.0 0.0  
Since 1 July snowfall 0.0 0.0  
Snow Depth 0.00 in    
Sea Level Pressure  
Sea Level Pressure 29.62 in    
Wind  
Wind Speed 8 mph (SSW)    
Max Wind Speed 22 mph    
Max Gust Speed 26 mph    
Visibility 10 miles    
Events      
T = Trace of Precipitation, MM = Missing Value Source: NWS Daily Summary

Daily Weather History Graph

Daily Weather History Graph

Search for Another Location

Airport or City:

Astronomy

Jul. 03, 2013 Rise Set
Actual Time 5:28 AM PDT 8:01 PM PDT
Civil Twilight 4:58 AM PDT 8:31 PM PDT
Nautical Twilight 4:20 AM PDT 9:08 PM PDT
Astronomical Twilight 3:39 AM PDT 9:49 PM PDT
Moon 2:05 AM PDT (7/3) 4:18 PM PDT (7/3)
Length of Visible Light 15h 33m
Length of Day
14h 32m
Waning Crescent, 17% of the Moon is Illuminated
Jul 3
Waning Crescent
Jul 8
New
Jul 15
First Quarter
Jul 22
Full
Jul 29
Last Quarter

Hourly Weather History & Observations

Time (PDT) Temp. Dew Point Humidity Pressure Visibility Wind Dir Wind Speed Gust Speed Precip Events Conditions
12:56 AM 99.0 °F 43.0 °F 15% 29.66 in 10.0 mi South 16.1 mph 23.0 mph N/A   Mostly Cloudy
1:56 AM 98.1 °F 43.0 °F 15% 29.64 in 10.0 mi South 16.1 mph - N/A   Mostly Cloudy
2:56 AM 96.1 °F 43.0 °F 16% 29.63 in 10.0 mi SSW 11.5 mph - N/A   Mostly Cloudy
3:56 AM 93.9 °F 44.1 °F 18% 29.63 in 10.0 mi South 11.5 mph - N/A   Mostly Cloudy
4:56 AM 93.0 °F 44.1 °F 18% 29.65 in 10.0 mi South 8.1 mph - N/A   Mostly Cloudy
5:56 AM 91.9 °F 44.1 °F 19% 29.67 in 10.0 mi SSW 9.2 mph - N/A   Mostly Cloudy
6:56 AM 93.0 °F 48.9 °F 22% 29.68 in 10.0 mi West 4.6 mph - N/A   Scattered Clouds
7:56 AM 95.0 °F 50.0 °F 22% 29.70 in 10.0 mi West 3.5 mph - N/A   Scattered Clouds
8:56 AM 98.1 °F 46.9 °F 18% 29.71 in 10.0 mi South 4.6 mph - N/A   Scattered Clouds
9:56 AM 100.0 °F 46.9 °F 16% 29.70 in 10.0 mi SSE 4.6 mph - N/A   Mostly Cloudy
10:56 AM 102.9 °F 46.9 °F 15% 29.70 in 10.0 mi Variable 3.5 mph - N/A   Scattered Clouds
11:56 AM 105.1 °F 46.0 °F 14% 29.68 in 10.0 mi SSW 4.6 mph - N/A   Scattered Clouds
12:56 PM 107.1 °F 43.0 °F 11% 29.66 in 10.0 mi Variable 5.8 mph - N/A   Scattered Clouds
1:56 PM 109.9 °F 39.9 °F 9% 29.63 in 10.0 mi Variable 3.5 mph - N/A   Scattered Clouds
2:56 PM 111.0 °F 39.0 °F 9% 29.60 in 10.0 mi Variable 3.5 mph - N/A   Scattered Clouds
3:56 PM 111.9 °F 37.0 °F 8% 29.57 in 10.0 mi Variable 5.8 mph - N/A   Scattered Clouds
4:56 PM 111.0 °F 36.0 °F 8% 29.53 in 10.0 mi SSE 4.6 mph - N/A   Scattered Clouds
5:56 PM 111.0 °F 37.0 °F 8% 29.52 in 10.0 mi SSW 10.4 mph - N/A   Scattered Clouds
6:56 PM 109.9 °F 37.0 °F 8% 29.52 in 10.0 mi SSE 6.9 mph - N/A   Mostly Cloudy
7:56 PM 108.0 °F 39.9 °F 10% 29.52 in 10.0 mi South 5.8 mph - N/A   Mostly Cloudy
8:56 PM 107.1 °F 39.9 °F 10% 29.52 in 10.0 mi SW 9.2 mph - N/A   Mostly Cloudy
9:56 PM 106.0 °F 39.9 °F 11% 29.55 in 10.0 mi WSW 16.1 mph - N/A   Mostly Cloudy
10:56 PM 105.1 °F 41.0 °F 11% 29.56 in 10.0 mi NNW 17.3 mph 21.9 mph N/A   Mostly Cloudy
11:56 PM 102.9 °F 41.0 °F 12% 29.57 in 10.0 mi NW 8.1 mph 17.3 mph N/A   Mostly Cloudy